Wind_Speed
35 34 34 34 36 37 37 38 40 41 42 45 46 46 45 45 45 46 47 48 48 48 47 47 46 47 48 48 47 47 48 48 46 44 43 43 42 39 38 37 37 36 35 34
33 33 32 33 34 35 36 38 38 39 41 44 46 46 45 45 46 46 47 48 48 48 48 48 47 48 49 49 49 48 48 49 48 47 45 43 43 42 39 39 39 38 37 36
32 31 31 32 33 33 35 36 36 37 39 42 45 46 45 46 46 47 48 49 48 48 48 48 48 48 48 49 49 49 49 49 49 49 48 46 45 44 42 41 40 40 40 38
30 30 31 31 31 32 33 34 35 36 38 39 41 44 44 44 46 47 48 49 49 48 48 49 49 49 49 49 50 50 50 50 50 50 50 48 46 45 44 43 42 42 42 41
29 29 29 30 30 31 32 33 34 36 37 38 39 42 42 42 44 45 48 48 49 49 49 49 50 50 50 50 51 51 51 50 50 51 51 50 48 46 45 44 44 43 43 43
29 29 29 29 29 30 31 32 33 34 35 36 36 39 39 40 42 43 46 46 47 48 49 49 50 50 50 51 51 52 52 52 51 51 51 51 50 48 47 46 46 45 44 44
29 29 29 29 29 29 29 30 30 31 33 33 31 35 38 38 40 43 44 45 46 48 49 49 50 50 50 51 51 52 53 53 52 51 52 52 51 50 49 46 45 46 45 45
29 28 28 28 28 28 29 29 29 30 31 31 31 34 36 38 40 41 43 45 44 46 48 49 50 50 50 50 52 52 52 52 53 53 53 53 53 52 52 50 48 46 46 46
29 28 28 28 28 28 28 28 28 29 30 31 31 34 36 37 38 41 42 44 44 44 47 48 49 50 50 50 51 52 53 52 53 53 54 54 54 53 52 52 51 49 47 46
28 28 27 28 28 27 28 27 27 28 29 29 30 32 33 35 38 40 41 42 43 44 45 47 49 50 50 50 50 51 52 53 53 53 53 54 54 53 53 52 51 51 50 48
29 28 27 28 27 27 27 27 27 28 29 29 30 31 32 33 35 37 39 41 41 42 43 45 47 48 49 50 50 51 52 52 53 54 54 54 54 53 53 53 52 51 50 49
28 28 28 27 26 26 26 27 26 27 27 28 29 31 32 32 32 34 37 38 39 40 42 44 45 45 47 49 50 51 51 52 52 53 54 55 55 54 54 53 53 52 50 49
27 27 27 26 25 25 25 25 25 27 28 28 28 29 31 33 33 33 35 37 38 39 41 42 44 44 46 48 49 50 50 51 51 52 53 53 54 54 54 53 52 52 51 50
26 25 24 24 24 24 24 24 25 26 27 27 27 28 30 32 32 33 34 36 38 38 39 41 43 44 46 47 47 48 49 50 51 51 52 53 54 54 53 52 52 52 51 51
25 24 23 23 23 23 22 23 24 25 26 27 26 26 27 29 31 32 32 33 36 38 40 40 42 44 45 46 46 47 48 50 51 52 51 52 53 54 53 52 51 52 51 51
23 23 23 22 22 21 21 20 21 22 23 25 25 26 26 27 28 29 30 32 34 36 37 40 41 43 44 45 46 47 48 48 50 50 50 51 53 53 53 52 51 52 51 50
22 21 21 20 20 21 20 18 19 20 21 22 23 24 25 26 27 28 29 30 32 34 35 37 40 40 42 43 44 46 47 48 48 49 50 50 51 52 52 52 52 52 51 51
21 21 20 20 20 20 19 19 19 19 20 21 22 23 23 24 25 26 27 28 30 32 34 35 37 39 40 42 42 44 46 47 49 50 50 49 48 49 50 51 52 52 52 52
21 21 20 20 20 20 19 19 19 19 19 20 21 22 23 23 23 24 24 25 27 30 32 34 36 37 39 40 42 43 44 45 47 49 48 48 48 48 49 50 50 50 50 50
21 21 20 20 20 20 19 19 19 19 20 19 20 21 22 22 23 23 23 24 25 27 29 32 34 36 38 39 42 43 43 45 46 46 46 46 46 46 47 49 49 49 49 49
22 21 20 20 20 20 19 19 19 20 20 19 20 21 22 23 24 23 23 23 24 25 27 29 31 34 36 38 40 41 42 43 43 44 44 44 45 45 46 48 48 48 48 48
22 20 19 19 19 20 20 20 20 20 20 21 21 22 22 24 24 24 24 24 24 24 26 27 29 31 34 37 39 40 41 42 42 43 43 43 43 43 44 45 46 47 47 47
21 20 20 19 19 20 20 21 21 22 22 22 22 22 23 23 24 24 24 24 23 23 24 25 27 29 31 34 37 38 39 40 41 41 42 42 42 42 42 42 43 44 45 46
22 21 21 20 20 20 21 22 22 22 22 22 22 22 23 23 23 24 25 24 24 24 24 24 25 26 28 31 34 37 39 39 39 40 40 40 41 41 42 43 43 44 45 45
22 21 21 21 20 20 21 22 22 22 22 22 23 23 23 23 23 24 24 24 24 24 24 24 24 24 25 28 32 34 36 37 38 39 40 40 40 40 41 42 43 43 44 44
21 21 21 21 21 21 20 20 21 22 22 23 23 23 24 23 23 23 24 24 24 24 24 24 24 23 24 26 28 31 33 34 35 36 37 39 40 40 41 42 42 43 43 43
Wind_Direction
283 278 276 273 270 268 264 261 260 257 255 254 252 250 247 246 245 243 240 238 237 236 236 235 234 233 233 233 233 232 233 233 233 234 234 235 235 236 236 236 237 237 238 238
283 277 275 273 270 267 264 261 260 258 256 254 252 250 247 246 245 242 239 237 236 236 235 235 234 234 234 234 234 233 233 233 233 233 234 235 234 235 237 237 238 238 238 239
285 281 276 273 271 268 266 264 261 260 258 256 255 251 247 245 244 242 238 237 236 236 236 235 235 234 234 234 234 234 233 233 233 233 234 234 235 236 237 238 239 237 238 240
288 283 278 274 272 268 266 264 262 261 260 258 256 254 247 246 244 242 239 237 236 235 236 235 235 235 235 235 234 234 233 234 233 234 234 235 236 237 237 238 239 238 238 240
289 285 280 276 273 270 268 266 262 261 261 260 256 256 251 246 244 242 239 237 236 236 236 236 235 235 236 235 234 234 233 234 234 234 235 235 236 236 236 237 238 239 239 239
288 285 282 279 275 271 269 267 264 261 260 260 257 256 252 247 245 242 240 237 236 236 235 235 236 235 235 235 234 233 233 234 235 235 235 235 235 236 237 237 238 239 240 240
289 285 284 282 277 271 269 267 264 262 261 261 256 253 251 247 246 243 240 237 237 236 235 235 235 235 235 234 234 234 234 234 235 235 235 235 235 235 236 237 240 240 240 241
292 288 285 283 279 274 270 266 262 263 262 259 255 252 250 248 246 244 241 238 237 237 236 235 235 234 234 234 234 234 234 235 235 235 235 235 236 236 237 239 239 240 240 242
296 290 288 285 280 275 270 265 263 261 261 260 257 254 249 247 247 244 242 239 239 238 237 236 235 235 234 234 234 234 233 234 234 235 235 235 236 237 238 239 240 241 242 243
297 292 287 284 281 274 269 267 263 259 258 257 257 255 251 247 248 246 243 242 240 239 238 237 236 235 234 234 234 234 234 234 234 235 235 235 236 237 238 239 240 241 241 243
295 292 288 283 281 277 269 265 262 260 259 257 257 253 250 250 249 247 244 242 241 239 238 237 236 235 235 235 235 235 235 235 235 235 236 236 236 237 238 239 240 242 243 244
296 293 289 286 283 278 271 267 264 260 257 257 258 254 250 250 251 249 246 243 241 239 238 237 236 236 236 235 235 236 235 235 235 236 236 236 237 237 238 239 241 242 243 243
297 294 292 286 283 279 269 265 262 259 257 255 256 254 252 252 251 251 248 244 243 241 239 237 237 236 236 236 235 235 235 235 235 236 236 236 236 237 239 240 241 241 242 243
297 293 291 289 286 283 273 264 261 259 258 255 255 256 253 253 252 251 249 246 243 241 239 236 237 236 235 236 236 235 235 235 235 236 236 235 235 236 237 239 240 241 242 243
296 293 290 289 287 282 278 268 263 260 258 258 257 258 256 253 254 254 251 248 245 243 240 237 237 236 235 235 235 235 234 235 236 236 236 236 235 235 237 237 239 240 242 243
298 293 290 287 287 286 281 275 269 264 260 259 258 258 257 254 255 256 253 249 246 244 241 238 237 236 235 235 236 236 235 235 235 234 235 235 235 235 236 237 238 240 242 242
302 298 291 288 285 285 282 278 272 267 264 262 260 260 259 256 255 255 255 251 248 246 243 240 237 237 236 236 236 235 235 234 234 235 236 236 237 237 237 237 238 240 241 242
303 300 296 291 286 284 283 279 272 269 266 264 262 262 261 260 257 257 256 256 251 248 246 243 240 237 235 234 235 235 235 235 235 236 235 236 237 238 238 238 239 240 241 242
306 301 296 292 289 285 282 280 274 270 268 266 263 261 260 259 257 257 258 258 256 252 249 246 242 239 236 233 233 233 233 234 234 235 235 237 238 239 239 239 240 240 241 242
308 304 298 293 290 287 283 279 276 271 269 267 266 263 262 260 258 256 258 258 257 255 251 248 244 241 237 235 234 233 233 234 235 236 237 239 239 240 240 241 241 242 242 242
308 304 299 293 289 286 283 280 277 273 269 268 268 265 263 261 261 259 259 260 259 256 253 250 246 243 238 235 234 232 232 233 234 237 238 239 240 240 240 240 241 242 242 243
308 306 302 297 291 286 283 278 276 275 272 270 269 268 266 263 263 262 265 266 263 258 255 252 248 244 240 236 233 232 232 232 234 236 237 238 238 239 239 239 241 242 243 244
308 305 302 297 292 287 283 280 277 275 274 273 271 271 269 265 263 263 265 265 263 259 255 252 249 246 241 236 233 233 233 233 233 234 235 236 237 237 238 240 241 242 243 244
308 302 298 296 290 285 283 281 278 277 276 274 274 274 272 268 264 262 262 264 262 259 256 253 251 248 242 237 233 232 232 233 233 233 233 233 235 238 239 240 241 243 244 245
310 305 300 297 291 285 284 283 280 278 276 276 275 274 273 270 268 266 265 263 261 259 257 253 252 249 242 237 234 232 232 232 232 232 233 234 236 237 238 240 242 243 244 246
309 305 301 299 295 289 285 282 280 278 276 276 275 274 271 270 268 266 264 262 260 258 256 253 251 247 243 239 236 234 234 233 233 233 235 236 237 238 239 240 242 244 245 246
Height
5630 5630 5628 5627 5627 5627 5628 5629 5630 5633 5635 5636 5639 5643 5648 5653 5657 5662 5667 5673 5679 5685 5691 5697 5703 5708 5713 5718 5723 5729 5735 5740 5746 5751 5756 5760 5765 5770 5774 5777 5781 5785 5788 5791
5620 5619 5619 5617 5617 5617 5617 5618 5620 5622 5623 5624 5627 5632 5636 5641 5646 5651 5656 5662 5668 5674 5681 5687 5693 5698 5703 5709 5714 5720 5725 5731 5736 5742 5747 5751 5756 5761 5765 5770 5774 5778 5781 5785
5611 5611 5609 5608 5608 5608 5608 5609 5610 5611 5613 5614 5616 5620 5625 5630 5634 5639 5644 5650 5657 5663 5670 5676 5682 5688 5693 5699 5704 5710 5715 5721 5726 5731 5737 5742 5747 5752 5757 5761 5765 5769 5773 5777
5602 5601 5600 5599 5599 5599 5599 5600 5601 5602 5603 5604 5607 5608 5614 5618 5623 5628 5633 5639 5646 5653 5659 5665 5671 5677 5682 5688 5694 5699 5705 5710 5716 5721 5727 5733 5738 5744 5748 5753 5756 5760 5765 5769
5594 5593 5591 5591 5591 5590 5590 5591 5592 5592 5593 5594 5597 5598 5603 5607 5612 5616 5622 5629 5635 5642 5648 5654 5660 5666 5672 5677 5683 5688 5694 5700 5705 5711 5716 5722 5728 5733 5738 5742 5747 5751 5755 5760
5587 5585 5584 5583 5582 5582 5582 5583 5583 5583 5583 5585 5589 5590 5592 5596 5600 5606 5611 5617 5623 5630 5636 5642 5648 5654 5660 5666 5671 5677 5683 5689 5694 5700 5705 5711 5717 5723 5728 5732 5737 5742 5746 5750
5580 5577 5576 5575 5575 5575 5574 5574 5574 5574 5574 5576 5580 5580 5583 5587 5590 5595 5601 5606 5612 5618 5624 5630 5636 5643 5649 5655 5660 5666 5672 5678 5683 5688 5694 5700 5706 5712 5718 5722 5727 5732 5736 5741
5571 5570 5568 5567 5566 5566 5566 5566 5567 5566 5567 5569 5571 5571 5575 5578 5581 5585 5590 5596 5602 5607 5613 5619 5625 5631 5637 5643 5649 5655 5661 5666 5672 5677 5683 5689 5695 5701 5707 5712 5717 5722 5727 5731
5563 5562 5561 5559 5558 5558 5557 5558 5559 5560 5559 5560 5562 5564 5566 5569 5572 5576 5581 5586 5592 5597 5602 5608 5613 5619 5625 5631 5637 5643 5649 5655 5660 5666 5672 5678 5684 5690 5695 5701 5706 5711 5716 5720
5556 5554 5553 5552 5551 5550 5550 5550 5551 5551 5550 5552 5555 5556 5558 5560 5563 5567 5572 5576 5581 5587 5592 5597 5602 5608 5614 5620 5626 5631 5637 5643 5649 5654 5660 5666 5673 5679 5684 5689 5695 5700 5705 5710
5549 5547 5546 5544 5542 5542 5543 5543 5542 5543 5544 5545 5547 5550 5550 5552 5555 5558 5562 5566 5571 5576 5581 5586 5591 5597 5603 5608 5614 5619 5625 5631 5637 5643 5648 5654 5661 5667 5673 5678 5684 5688 5693 5699
5542 5540 5538 5537 5536 5535 5534 5534 5535 5536 5537 5537 5539 5543 5543 5545 5547 5550 5553 5557 5560 5565 5570 5575 5580 5586 5591 5597 5602 5607 5613 5619 5625 5631 5637 5643 5649 5655 5661 5667 5672 5677 5682 5688
5535 5533 5531 5530 5531 5529 5528 5528 5528 5529 5530 5530 5531 5536 5535 5537 5539 5541 5544 5548 5551 5555 5560 5565 5570 5575 5580 5586 5591 5596 5602 5607 5613 5619 5625 5631 5637 5643 5650 5655 5660 5666 5671 5676
5528 5526 5526 5524 5522 5520 5520 5521 5521 5522 5522 5523 5525 5527 5528 5530 5531 5533 5536 5539 5542 5546 5550 5555 5559 5564 5569 5575 5580 5585 5590 5596 5602 5607 5613 5619 5625 5632 5638 5643 5649 5654 5660 5665
5522 5520 5518 5517 5516 5515 5514 5514 5515 5515 5516 5517 5519 5520 5521 5522 5524 5526 5528 5530 5533 5537 5541 5545 5549 5554 5559 5564 5569 5574 5579 5585 5590 5596 5601 5607 5613 5619 5625 5631 5637 5642 5648 5653
5516 5514 5513 5512 5510 5509 5509 5509 5509 5509 5510 5511 5512 5513 5514 5515 5516 5518 5519 5522 5524 5527 5531 5534 5538 5543 5548 5553 5558 5563 5568 5574 5579 5584 5590 5596 5602 5607 5613 5619 5624 5630 5635 5640
5511 5509 5507 5506 5505 5504 5504 5504 5504 5504 5504 5505 5505 5507 5507 5508 5509 5510 5512 5513 5515 5517 5521 5524 5527 5531 5536 5542 5547 5552 5557 5563 5568 5574 5579 5585 5590 5596 5601 5607 5612 5617 5623 5628
5506 5504 5502 5501 5501 5499 5501 5499 5499 5499 5499 5499 5499 5500 5500 5501 5502 5503 5503 5505 5506 5509 5511 5514 5518 5521 5526 5531 5536 5541 5546 5552 5557 5563 5568 5573 5579 5584 5589 5595 5600 5605 5610 5616
5501 5499 5497 5496 5494 5494 5495 5494 5493 5493 5494 5494 5494 5494 5494 5495 5496 5497 5497 5498 5499 5500 5502 5505 5508 5511 5516 5521 5526 5531 5536 5541 5546 5551 5557 5562 5568 5573 5578 5583 5588 5593 5598 5603
5497 5495 5493 5491 5489 5489 5491 5489 5488 5489 5488 5488 5488 5488 5488 5489 5490 5492 5491 5491 5492 5492 5494 5496 5499 5502 5506 5511 5515 5520 5525 5530 5536 5541 5546 5551 5556 5561 5566 5572 5577 5582 5587 5591
5493 5491 5489 5487 5485 5484 5485 5484 5483 5484 5484 5483 5482 5482 5482 5482 5483 5484 5484 5484 5484 5485 5486 5487 5490 5492 5496 5501 5505 5510 5515 5520 5526 5530 5535 5540 5545 5551 5555 5560 5565 5570 5575 5580
5488 5486 5484 5482 5481 5482 5480 5479 5479 5478 5477 5476 5476 5476 5476 5477 5477 5477 5477 5477 5477 5478 5478 5479 5481 5484 5487 5491 5495 5500 5505 5510 5516 5521 5526 5530 5535 5540 5544 5549 5554 5559 5563 5568
5484 5482 5479 5478 5478 5475 5473 5473 5472 5471 5471 5471 5470 5470 5470 5470 5470 5471 5471 5471 5471 5471 5471 5472 5474 5476 5479 5482 5486 5491 5496 5501 5506 5511 5516 5520 5525 5530 5534 5539 5543 5548 5552 5557
5479 5477 5475 5473 5471 5470 5468 5467 5466 5466 5465 5465 5464 5464 5464 5464 5464 5464 5464 5464 5464 5465 5465 5466 5468 5469 5471 5474 5478 5482 5487 5492 5496 5501 5506 5510 5515 5519 5524 5529 5533 5537 5541 5545
5474 5472 5469 5467 5466 5464 5463 5462 5461 5460 5459 5459 5458 5458 5458 5457 5457 5458 5458 5458 5458 5458 5459 5460 5461 5463 5464 5467 5470 5474 5478 5483 5488 5492 5497 5501 5506 5510 5514 5518 5522 5526 5530 5534
5469 5467 5464 5463 5460 5459 5458 5456 5455 5454 5453 5453 5452 5452 5451 5451 5451 5451 5451 5451 5451 5452 5452 5453 5455 5456 5458 5460 5464 5467 5471 5475 5480 5484 5488 5492 5496 5500 5504 5508 5512 5515 5519 5523